GW4457 Weather Reports


Display with metric or nautical units.
time (UTC)temp
F
wind
direction
speed
MPH
gust
MPH
rain 1hr
in
rain 24hr
in
rain mn
in
humidity
%
barometer
mb
20260504231155 78 234 4.0 7.0 0.00 0.00 0.00 82 1019.7
20260504230651 78 186 3.0 7.0 0.00 0.00 0.00 83 1020.1
20260504230150 78 65 5.0 8.0 0.00 0.00 0.00 83 1019.8
20260504225648 78 115 6.0 11.0 0.00 0.00 0.00 83 1019.8
20260504225144 79 130 3.0 4.0 0.00 0.00 0.00 82 1019.8
20260504224641 79 265 3.0 7.0 0.00 0.00 0.00 82 1019.8
20260504224137 79 49 5.0 10.0 0.00 0.00 0.00 82 1019.8
20260504223635 79 77 6.0 7.0 0.00 0.00 0.00 81 1019.7
20260504223131 79 100 4.0 7.0 0.00 0.00 0.00 81 1019.7
20260504222628 80 83 5.0 8.0 0.00 0.00 0.00 81 1019.6
20260504222125 80 129 5.0 10.0 0.00 0.00 0.00 80 1019.5
20260504221622 80 81 6.0 11.0 0.00 0.00 0.00 80 1019.5
20260504221119 80 69 5.0 8.0 0.00 0.00 0.00 80 1019.3
20260504220615 80 189 4.0 10.0 0.00 0.00 0.00 79 1019.5
20260504220113 80 129 10.0 13.0 0.00 0.00 0.00 79 1019.4
20260504215609 80 94 7.0 10.0 0.00 0.00 0.00 80 1019.3
20260504215107 80 125 6.0 13.0 0.00 0.00 0.00 80 1019.2
20260504214602 80 104 8.0 11.0 0.00 0.00 0.00 79 1019.0
20260504214059 81 96 8.0 13.0 0.00 0.00 0.00 78 1019.0
20260504213555 81 105 9.0 10.0 0.00 0.00 0.00 77 1019.0
20260504213052 81 104 7.0 13.0 0.00 0.00 0.00 76 1019.0
20260504212548 81 97 9.0 13.0 0.00 0.00 0.00 76 1019.0
20260504212046 81 161 7.0 10.0 0.00 0.00 0.00 76 1019.2
20260504211542 81 88 11.0 13.0 0.00 0.00 0.00 75 1019.1
20260504211039 81 121 10.0 11.0 0.00 0.00 0.00 75 1019.0
20260504210536 81 129 7.0 13.0 0.00 0.00 0.00 76 1019.0
20260504210033 81 125 8.0 14.0 0.00 0.00 0.00 75 1019.2
20260504205531 82 114 12.0 16.0 0.00 0.00 0.00 75 1019.1
20260504205029 81 159 7.0 14.0 0.00 0.00 0.00 76 1019.0
20260504204527 82 107 9.0 16.0 0.00 0.00 0.00 75 1018.9
20260504204026 82 85 4.0 15.0 0.00 0.00 0.00 75 1018.8
20260504203523 82 51 7.0 11.0 0.00 0.00 0.00 75 1019.1
20260504203020 82 145 13.0 16.0 0.00 0.00 0.00 74 1018.9
20260504202516 82 152 5.0 10.0 0.00 0.00 0.00 74 1019.1
20260504202013 82 132 9.0 15.0 0.00 0.00 0.00 74 1019.0
20260504201510 82 218 11.0 16.0 0.00 0.00 0.00 73 1019.2
20260504201008 83 79 7.0 15.0 0.00 0.00 0.00 72 1019.3
20260504200504 83 98 11.0 19.0 0.00 0.00 0.00 72 1019.1
20260504200000 83 73 13.0 16.0 0.00 0.00 0.00 72 1018.9
20260504195456 83 115 15.0 19.0 0.00 0.00 0.00 72 1019.1
20260504194953 83 124 9.0 21.0 0.00 0.00 0.00 72 1019.2
20260504194449 83 56 11.0 17.0 0.00 0.00 0.00 72 1019.2
20260504193945 84 109 14.0 18.0 0.00 0.00 0.00 70 1019.2
20260504193443 83 136 11.0 15.0 0.00 0.00 0.00 72 1019.2
20260504192941 84 99 16.0 19.0 0.00 0.00 0.00 71 1019.3
20260504192438 84 117 13.0 21.0 0.00 0.00 0.00 71 1019.5
20260504191937 84 113 12.0 17.0 0.00 0.00 0.00 71 1019.4
20260504191435 84 123 15.0 19.0 0.00 0.00 0.00 71 1019.5
20260504190935 84 103 12.0 22.0 0.00 0.00 0.00 71 1019.5
20260504190431 84 105 12.0 18.0 0.00 0.00 0.00 73 1019.4
20260504185928 84 66 7.0 22.0 0.00 0.00 0.00 71 1019.3
20260504185426 85 110 16.0 21.0 0.00 0.00 0.00 70 1019.3
20260504184921 85 93 15.0 21.0 0.00 0.00 0.00 70 1019.6
20260504184417 85 126 8.0 19.0 0.00 0.00 0.00 71 1019.5
20260504183913 84 109 19.0 24.0 0.00 0.00 0.00 69 1019.5
20260504183411 85 117 12.0 23.0 0.00 0.00 0.00 69 1019.6
20260504182908 85 93 13.0 17.0 0.00 0.00 0.00 69 1019.3
20260504182405 85 153 11.0 17.0 0.00 0.00 0.00 69 1019.8
20260504181902 85 88 14.0 22.0 0.00 0.00 0.00 68 1019.5
20260504181359 84 91 15.0 22.0 0.00 0.00 0.00 69 1019.7
20260504180858 86 130 20.0 22.0 0.00 0.00 0.00 65 1019.8
20260504180356 86 153 15.0 19.0 0.00 0.00 0.00 68 1020.0
20260504175854 85 121 13.0 22.0 0.00 0.00 0.00 68 1019.8
20260504175350 85 114 14.0 21.0 0.00 0.00 0.00 67 1020.0
20260504174849 85 133 18.0 23.0 0.00 0.00 0.00 66 1020.0
20260504174346 85 96 15.0 21.0 0.00 0.00 0.00 65 1020.1
20260504173843 86 156 14.0 23.0 0.00 0.00 0.00 65 1020.0
20260504173340 86 115 22.0 24.0 0.00 0.00 0.00 63 1020.1
20260504172837 86 126 18.0 23.0 0.00 0.00 0.00 63 1020.0
20260504172333 85 118 16.0 24.0 0.00 0.00 0.00 60 1020.2
20260504171829 86 102 13.0 22.0 0.00 0.00 0.00 59 1020.2
20260504171326 87 83 11.0 16.0 0.00 0.00 0.00 60 1020.4
20260504170824 85 157 14.0 19.0 0.00 0.00 0.00 59 1020.4
20260504170320 86 91 17.0 21.0 0.00 0.00 0.00 59 1020.7
20260504160238 86 110 14.0 22.0 0.00 0.00 0.00 63 1020.6
20260504150704 85 161 12.0 21.0 0.00 0.00 0.00 67 1021.1
20260504150201 85 123 14.0 27.0 0.00 0.00 0.00 66 1020.8
20260504141130 85 68 11.0 23.0 0.00 0.00 0.00 66 1021.1
20260504140626 85 96 16.0 21.0 0.00 0.00 0.00 68 1021.0
20260504140122 85 81 17.0 25.0 0.00 0.00 0.00 68 1021.1
20260504130550 84 127 11.0 21.0 0.00 0.00 0.00 68 1020.9
20260504110438 77 79 6.0 10.0 0.00 0.00 0.00 79 1020.6
20260504100401 76 94 7.0 15.0 0.00 0.00 0.00 81 1020.1
20260504081754 75 126 7.0 10.0 0.00 0.00 0.00 84 1019.6
20260504081250 75 62 10.0 11.0 0.00 0.00 0.00 84 1019.7
20260504080747 75 125 5.0 10.0 0.00 0.00 0.00 84 1019.6
20260504080243 75 68 7.0 13.0 0.00 0.00 0.00 84 1019.5
20260504070211 76 173 7.0 11.0 0.00 0.00 0.00 84 1019.5
20260504060131 76 85 13.0 14.0 0.00 0.00 0.00 84 1019.9
20260504050600 76 63 9.0 15.0 0.00 0.00 0.00 82 1020.2
20260504045553 76 9 11.0 16.0 0.00 0.00 0.00 81 1020.3
20260504045048 76 80 10.0 17.0 0.00 0.00 0.00 81 1020.5
20260504044546 76 56 10.0 17.0 0.00 0.00 0.00 81 1020.6
20260504044043 76 350 9.0 11.0 0.00 0.00 0.00 81 1020.7
20260504043540 77 54 7.0 11.0 0.00 0.00 0.00 81 1020.6
20260504043038 77 85 10.0 16.0 0.00 0.00 0.00 81 1020.7
20260504042534 77 74 9.0 15.0 0.00 0.00 0.00 81 1020.8
20260504042031 76 49 13.0 16.0 0.00 0.00 0.00 81 1020.8
20260504041527 76 61 11.0 15.0 0.00 0.00 0.00 80 1020.7
20260504041023 77 66 6.0 11.0 0.00 0.00 0.00 80 1021.0
20260504040521 77 102 7.0 14.0 0.00 0.00 0.00 79 1020.9
20260504040018 77 59 9.0 10.0 0.00 0.00 0.00 79 1021.1
20260504035515 77 102 6.0 13.0 0.00 0.00 0.00 79 1021.2
20260504035011 77 38 7.0 16.0 0.00 0.00 0.00 79 1021.2
20260504034509 77 59 8.0 16.0 0.00 0.00 0.00 79 1021.3
20260504034006 77 83 9.0 10.0 0.00 0.00 0.00 79 1021.4
20260504033503 77 132 13.0 17.0 0.00 0.00 0.00 79 1021.6
20260504033000 77 78 7.0 17.0 0.00 0.00 0.00 79 1021.4
20260504032457 77 95 12.0 16.0 0.00 0.00 0.00 79 1021.3
20260504031954 77 81 8.0 16.0 0.00 0.00 0.00 80 1021.5
20260504031451 77 79 12.0 18.0 0.00 0.00 0.00 80 1021.3
20260504030947 77 71 9.0 13.0 0.00 0.00 0.00 80 1021.6
20260504030445 77 89 11.0 13.0 0.00 0.00 0.00 80 1021.5
20260504025940 77 74 10.0 14.0 0.00 0.00 0.00 81 1021.5
20260504025437 77 84 8.0 13.0 0.00 0.00 0.00 81 1021.5
20260504024935 77 60 7.0 16.0 0.00 0.00 0.00 81 1021.4
20260504024431 77 51 14.0 17.0 0.00 0.00 0.00 81 1021.4
20260504023928 77 85 7.0 14.0 0.00 0.00 0.00 81 1021.3
20260504023425 77 50 9.0 15.0 0.00 0.00 0.00 81 1021.1
20260504022920 77 81 6.0 14.0 0.00 0.00 0.00 81 1021.3
20260504022417 77 65 10.0 14.0 0.00 0.00 0.00 81 1021.3
20260504021914 77 55 6.0 14.0 0.00 0.00 0.00 81 1021.0
20260504021411 77 70 8.0 10.0 0.00 0.00 0.00 81 1021.0
20260504020908 77 126 6.0 11.0 0.00 0.00 0.00 80 1020.9
20260504020405 77 41 8.0 11.0 0.00 0.00 0.00 80 1020.9
20260504015901 77 65 8.0 13.0 0.00 0.00 0.00 80 1020.8
20260504015357 77 75 6.0 13.0 0.00 0.00 0.00 80 1020.6
20260504014853 77 85 8.0 13.0 0.00 0.00 0.00 80 1020.8
20260504014349 77 244 4.0 11.0 0.00 0.00 0.00 80 1020.7
20260504013847 77 69 9.0 14.0 0.00 0.00 0.00 80 1020.7
20260504013345 77 28 9.0 11.0 0.00 0.00 0.00 80 1020.6
20260504012841 77 51 7.0 11.0 0.00 0.00 0.00 80 1020.6
20260504012339 77 67 12.0 14.0 0.00 0.00 0.00 80 1020.6
20260504011836 77 59 9.0 11.0 0.00 0.00 0.00 80 1020.6
20260504011333 77 81 10.0 15.0 0.00 0.00 0.00 80 1020.5
20260504010829 77 70 9.0 14.0 0.00 0.00 0.00 80 1020.5
20260504010324 77 87 12.0 15.0 0.00 0.00 0.00 81 1020.7
20260504005821 77 102 14.0 16.0 0.00 0.00 0.00 81 1020.8
20260504005318 77 87 11.0 15.0 0.00 0.00 0.00 82 1020.8
20260504004816 77 88 9.0 13.0 0.00 0.00 0.00 82 1020.7
20260504004313 77 82 8.0 13.0 0.00 0.00 0.00 82 1020.5
20260504003809 77 77 7.0 11.0 0.00 0.00 0.00 82 1020.6
20260504003307 77 128 6.0 10.0 0.00 0.00 0.00 82 1020.6
20260504002803 77 50 8.0 17.0 0.00 0.00 0.00 82 1020.5
20260504002300 77 85 9.0 15.0 0.00 0.00 0.00 82 1020.4
20260504001758 77 65 4.0 10.0 0.00 0.00 0.00 82 1020.5
20260504001254 77 70 8.0 9.0 0.00 0.00 0.00 82 1020.3
20260504000751 78 82 6.0 13.0 0.00 0.00 0.00 81 1020.5
20260504000248 78 46 4.0 9.0 0.00 0.00 0.00 81 1020.3
20260503235746 78 54 6.0 10.0 0.00 0.00 0.00 81 1020.3
20260503235243 78 63 7.0 16.0 0.00 0.00 0.00 81 1020.3
20260503234741 78 96 8.0 13.0 0.00 0.00 0.00 82 1020.3
20260503234239 78 106 7.0 11.0 0.00 0.00 0.00 82 1020.3
20260503233736 78 77 5.0 16.0 0.00 0.00 0.00 82 1020.2
20260503233231 78 70 14.0 17.0 0.00 0.00 0.00 82 1020.2
20260503232728 78 72 8.0 14.0 0.00 0.00 0.00 82 1020.2
20260503232226 78 104 11.0 13.0 0.00 0.00 0.00 82 1020.0
20260503231724 78 90 8.0 13.0 0.00 0.00 0.00 81 1019.8